Wetterdaten: Donnerstag, 14.01.2016
Datum Zeit Temp. A. Feuchte A. Luftdruck Regen Wind Richtung Richtung Sonnenschein ET UV Solar Taupunkt Windchill Windben Empfang
14.01.2016 00:00 3,3 C 71 % 1017,8 hPa 0,0 l/m 20,0 km/h (4 Bft) SW 236 0 min 0,000 mm 0,0 UV-I 0 W/m -1,4 C -5,4 C 30,6 km/h (5 Bft) 100,00 %
14.01.2016 00:05 3,3 C 71 % 1017,8 hPa 0,0 l/m 19,4 km/h (3 Bft) W-SW 247 0 min 0,000 mm 0,0 UV-I 0 W/m -1,4 C -5,1 C 32,2 km/h (5 Bft) 99,12 %
14.01.2016 00:10 3,3 C 71 % 1017,9 hPa 0,0 l/m 22,1 km/h (4 Bft) W-SW 253 0 min 0,000 mm 0,0 UV-I 0 W/m -1,4 C -6,2 C 37,0 km/h (5 Bft) 100,00 %
14.01.2016 00:15 3,3 C 71 % 1017,8 hPa 0,0 l/m 17,4 km/h (3 Bft) SW 228 0 min 0,000 mm 0,0 UV-I 0 W/m -1,4 C -4,2 C 29,0 km/h (5 Bft) 99,15 %
14.01.2016 00:20 3,3 C 71 % 1017,8 hPa 0,0 l/m 18,9 km/h (3 Bft) W-SW 244 0 min 0,000 mm 0,0 UV-I 0 W/m -1,4 C -4,9 C 29,0 km/h (5 Bft) 100,00 %
14.01.2016 00:25 3,3 C 71 % 1017,8 hPa 0,0 l/m 16,8 km/h (3 Bft) W-SW 253 0 min 0,000 mm 0,0 UV-I 0 W/m -1,4 C -3,9 C 27,4 km/h (4 Bft) 99,17 %
14.01.2016 00:30 3,2 C 71 % 1017,8 hPa 0,0 l/m 16,1 km/h (3 Bft) SW 217 0 min 0,000 mm 0,0 UV-I 0 W/m -1,5 C -3,7 C 29,0 km/h (5 Bft) 99,15 %
14.01.2016 00:35 3,2 C 71 % 1017,7 hPa 0,0 l/m 18,7 km/h (3 Bft) W 263 0 min 0,000 mm 0,0 UV-I 0 W/m -1,5 C -4,9 C 27,4 km/h (4 Bft) 98,35 %
14.01.2016 00:40 3,2 C 71 % 1017,8 hPa 0,0 l/m 17,5 km/h (3 Bft) W 262 0 min 0,000 mm 0,0 UV-I 0 W/m -1,5 C -4,4 C 25,7 km/h (4 Bft) 100,00 %
14.01.2016 00:45 3,2 C 71 % 1017,7 hPa 0,0 l/m 16,7 km/h (3 Bft) SW 219 0 min 0,000 mm 0,0 UV-I 0 W/m -1,5 C -4,0 C 25,7 km/h (4 Bft) 99,13 %
14.01.2016 00:50 3,2 C 70 % 1017,8 hPa 0,0 l/m 16,7 km/h (3 Bft) W 261 0 min 0,000 mm 0,0 UV-I 0 W/m -1,7 C -4,0 C 29,0 km/h (5 Bft) 100,00 %
14.01.2016 00:55 3,1 C 71 % 1017,8 hPa 0,0 l/m 16,9 km/h (3 Bft) W-SW 242 0 min 0,000 mm 0,0 UV-I 0 W/m -1,6 C -4,2 C 25,7 km/h (4 Bft) 96,75 %
14.01.2016 01:00 3,1 C 71 % 1017,8 hPa 0,0 l/m 17,5 km/h (3 Bft) SW 236 0 min 0,051 mm 0,0 UV-I 0 W/m -1,6 C -4,5 C 35,4 km/h (5 Bft) 97,09 %
14.01.2016 01:05 3,1 C 71 % 1017,9 hPa 0,0 l/m 18,7 km/h (3 Bft) SW 228 0 min 0,000 mm 0,0 UV-I 0 W/m -1,6 C -5,1 C 29,0 km/h (5 Bft) 96,90 %
14.01.2016 01:10 3,0 C 71 % 1017,9 hPa 0,0 l/m 16,3 km/h (3 Bft) W-SW 254 0 min 0,000 mm 0,0 UV-I 0 W/m -1,7 C -4,0 C 27,4 km/h (4 Bft) 97,25 %
14.01.2016 01:15 3,0 C 72 % 1017,9 hPa 0,0 l/m 15,2 km/h (3 Bft) SW 236 0 min 0,000 mm 0,0 UV-I 0 W/m -1,5 C -3,5 C 25,7 km/h (4 Bft) 96,52 %
14.01.2016 01:20 2,9 C 72 % 1018,0 hPa 0,0 l/m 13,1 km/h (3 Bft) W-SW 256 0 min 0,000 mm 0,0 UV-I 0 W/m -1,6 C -2,4 C 20,9 km/h (4 Bft) 97,67 %
14.01.2016 01:25 2,9 C 73 % 1017,9 hPa 0,0 l/m 12,9 km/h (3 Bft) SW 236 0 min 0,000 mm 0,0 UV-I 0 W/m -1,5 C -2,2 C 20,9 km/h (4 Bft) 97,39 %
14.01.2016 01:30 2,9 C 72 % 1018,0 hPa 0,0 l/m 13,5 km/h (3 Bft) SW 236 0 min 0,000 mm 0,0 UV-I 0 W/m -1,6 C -2,6 C 20,9 km/h (4 Bft) 98,11 %
14.01.2016 01:35 2,9 C 73 % 1018,0 hPa 0,0 l/m 12,2 km/h (2 Bft) SW 229 0 min 0,000 mm 0,0 UV-I 0 W/m -1,5 C -1,8 C 22,5 km/h (4 Bft) 97,62 %
14.01.2016 01:40 2,9 C 72 % 1018,0 hPa 0,0 l/m 13,9 km/h (3 Bft) SW 232 0 min 0,000 mm 0,0 UV-I 0 W/m -1,6 C -2,8 C 22,5 km/h (4 Bft) 100,00 %
14.01.2016 01:45 2,9 C 72 % 1018,0 hPa 0,0 l/m 11,0 km/h (2 Bft) SW 224 0 min 0,000 mm 0,0 UV-I 0 W/m -1,6 C -1,0 C 17,7 km/h (3 Bft) 100,00 %
14.01.2016 01:50 2,8 C 73 % 1018,1 hPa 0,0 l/m 12,6 km/h (3 Bft) SW 236 0 min 0,000 mm 0,0 UV-I 0 W/m -1,5 C -2,2 C 19,3 km/h (3 Bft) 98,33 %
14.01.2016 01:55 2,8 C 73 % 1018,0 hPa 0,0 l/m 14,1 km/h (3 Bft) W-SW 247 0 min 0,000 mm 0,0 UV-I 0 W/m -1,5 C -3,1 C 20,9 km/h (4 Bft) 98,39 %
14.01.2016 02:00 2,8 C 72 % 1018,0 hPa 0,0 l/m 11,8 km/h (2 Bft) W-SW 243 0 min 0,025 mm 0,0 UV-I 0 W/m -1,7 C -1,6 C 17,7 km/h (3 Bft) 100,00 %
14.01.2016 02:05 2,8 C 73 % 1017,9 hPa 0,0 l/m 11,9 km/h (2 Bft) W-SW 241 0 min 0,000 mm 0,0 UV-I 0 W/m -1,5 C -1,7 C 20,9 km/h (4 Bft) 100,00 %
14.01.2016 02:10 2,8 C 73 % 1017,9 hPa 0,0 l/m 12,7 km/h (3 Bft) SW 236 0 min 0,000 mm 0,0 UV-I 0 W/m -1,5 C -2,2 C 22,5 km/h (4 Bft) 99,15 %
14.01.2016 02:15 2,8 C 72 % 1018,0 hPa 0,0 l/m 12,2 km/h (2 Bft) SW 230 0 min 0,000 mm 0,0 UV-I 0 W/m -1,7 C -1,9 C 17,7 km/h (3 Bft) 99,15 %
14.01.2016 02:20 2,8 C 72 % 1017,9 hPa 0,0 l/m 12,6 km/h (3 Bft) W-SW 240 0 min 0,000 mm 0,0 UV-I 0 W/m -1,7 C -2,2 C 20,9 km/h (4 Bft) 100,00 %
14.01.2016 02:25 2,8 C 73 % 1017,9 hPa 0,0 l/m 11,9 km/h (2 Bft) SW 218 0 min 0,000 mm 0,0 UV-I 0 W/m -1,5 C -1,7 C 19,3 km/h (3 Bft) 99,10 %
14.01.2016 02:30 2,8 C 73 % 1017,9 hPa 0,0 l/m 12,5 km/h (3 Bft) W-SW 244 0 min 0,000 mm 0,0 UV-I 0 W/m -1,5 C -2,1 C 20,9 km/h (4 Bft) 100,00 %
14.01.2016 02:35 2,8 C 73 % 1017,9 hPa 0,0 l/m 11,1 km/h (2 Bft) W-SW 238 0 min 0,000 mm 0,0 UV-I 0 W/m -1,5 C -1,2 C 20,9 km/h (4 Bft) 100,00 %
14.01.2016 02:40 2,7 C 73 % 1017,9 hPa 0,0 l/m 11,9 km/h (2 Bft) W-SW 237 0 min 0,000 mm 0,0 UV-I 0 W/m -1,6 C -1,8 C 19,3 km/h (3 Bft) 100,00 %
14.01.2016 02:45 2,7 C 73 % 1017,9 hPa 0,0 l/m 11,3 km/h (2 Bft) S-SW 210 0 min 0,000 mm 0,0 UV-I 0 W/m -1,6 C -1,4 C 16,1 km/h (3 Bft) 100,00 %
14.01.2016 02:50 2,7 C 73 % 1017,8 hPa 0,0 l/m 9,0 km/h (2 Bft) SW 230 0 min 0,000 mm 0,0 UV-I 0 W/m -1,6 C 0,3 C 20,9 km/h (4 Bft) 100,00 %
14.01.2016 02:55 2,7 C 73 % 1017,8 hPa 0,0 l/m 10,0 km/h (2 Bft) SW 223 0 min 0,000 mm 0,0 UV-I 0 W/m -1,6 C -0,5 C 16,1 km/h (3 Bft) 97,46 %
14.01.2016 03:00 2,6 C 73 % 1017,8 hPa 0,0 l/m 9,3 km/h (2 Bft) W-SW 252 0 min 0,026 mm 0,0 UV-I 0 W/m -1,7 C -0,0 C 17,7 km/h (3 Bft) 97,94 %
14.01.2016 03:05 2,6 C 73 % 1017,8 hPa 0,0 l/m 8,0 km/h (2 Bft) W-SW 238 0 min 0,000 mm 0,0 UV-I 0 W/m -1,7 C 1,1 C 16,1 km/h (3 Bft) 96,38 %
14.01.2016 03:10 2,3 C 73 % 1017,8 hPa 0,0 l/m 11,4 km/h (2 Bft) SW 236 0 min 0,000 mm 0,0 UV-I 0 W/m -2,0 C -1,9 C 17,7 km/h (3 Bft) 95,65 %
14.01.2016 03:15 2,2 C 74 % 1017,8 hPa 0,0 l/m 11,5 km/h (2 Bft) SW 232 0 min 0,000 mm 0,0 UV-I 0 W/m -1,9 C -2,1 C 17,7 km/h (3 Bft) 96,43 %
14.01.2016 03:20 2,0 C 75 % 1018,0 hPa 0,0 l/m 11,8 km/h (2 Bft) S-SW 196 0 min 0,000 mm 0,0 UV-I 0 W/m -2,0 C -2,6 C 19,3 km/h (3 Bft) 97,56 %
14.01.2016 03:25 1,9 C 74 % 1017,9 hPa 0,0 l/m 9,3 km/h (2 Bft) W-SW 244 0 min 0,000 mm 0,0 UV-I 0 W/m -2,2 C -0,8 C 14,5 km/h (3 Bft) 97,25 %
14.01.2016 03:30 2,0 C 74 % 1017,9 hPa 0,0 l/m 9,4 km/h (2 Bft) S-SW 200 0 min 0,000 mm 0,0 UV-I 0 W/m -2,1 C -0,8 C 16,1 km/h (3 Bft) 98,11 %
14.01.2016 03:35 2,0 C 74 % 1018,0 hPa 0,0 l/m 9,6 km/h (2 Bft) SW 217 0 min 0,000 mm 0,0 UV-I 0 W/m -2,1 C -0,9 C 17,7 km/h (3 Bft) 97,83 %
14.01.2016 03:40 1,9 C 74 % 1017,9 hPa 0,0 l/m 9,5 km/h (2 Bft) S-SW 212 0 min 0,000 mm 0,0 UV-I 0 W/m -2,2 C -1,0 C 16,1 km/h (3 Bft) 99,11 %
14.01.2016 03:45 1,8 C 74 % 1017,8 hPa 0,0 l/m 12,5 km/h (3 Bft) SW 221 0 min 0,000 mm 0,0 UV-I 0 W/m -2,3 C -3,3 C 20,9 km/h (4 Bft) 100,00 %
14.01.2016 03:50 1,9 C 74 % 1017,8 hPa 0,0 l/m 10,4 km/h (2 Bft) SW 227 0 min 0,000 mm 0,0 UV-I 0 W/m -2,2 C -1,7 C 17,7 km/h (3 Bft) 99,19 %
14.01.2016 03:55 1,9 C 74 % 1017,7 hPa 0,0 l/m 9,8 km/h (2 Bft) S-SW 208 0 min 0,000 mm 0,0 UV-I 0 W/m -2,2 C -1,2 C 17,7 km/h (3 Bft) 100,00 %
14.01.2016 04:00 2,0 C 73 % 1017,7 hPa 0,0 l/m 11,1 km/h (2 Bft) W-SW 240 0 min 0,025 mm 0,0 UV-I 0 W/m -2,3 C -2,1 C 17,7 km/h (3 Bft) 98,33 %
14.01.2016 04:05 2,1 C 73 % 1017,7 hPa 0,0 l/m 9,5 km/h (2 Bft) SW 223 0 min 0,000 mm 0,0 UV-I 0 W/m -2,2 C -0,7 C 16,1 km/h (3 Bft) 100,00 %
14.01.2016 04:10 2,1 C 73 % 1017,7 hPa 0,0 l/m 9,7 km/h (2 Bft) SW 223 0 min 0,000 mm 0,0 UV-I 0 W/m -2,2 C -0,9 C 16,1 km/h (3 Bft) 99,13 %
14.01.2016 04:15 2,1 C 73 % 1017,8 hPa 0,0 l/m 10,7 km/h (2 Bft) SW 235 0 min 0,000 mm 0,0 UV-I 0 W/m -2,2 C -1,7 C 17,7 km/h (3 Bft) 99,15 %
14.01.2016 04:20 2,0 C 73 % 1017,8 hPa 0,0 l/m 10,6 km/h (2 Bft) W-SW 242 0 min 0,000 mm 0,0 UV-I 0 W/m -2,3 C -1,7 C 20,9 km/h (4 Bft) 100,00 %
14.01.2016 04:25 2,1 C 72 % 1017,9 hPa 0,0 l/m 11,0 km/h (2 Bft) S-SW 192 0 min 0,000 mm 0,0 UV-I 0 W/m -2,4 C -1,9 C 19,3 km/h (3 Bft) 99,13 %
14.01.2016 04:30 2,2 C 72 % 1017,9 hPa 0,0 l/m 9,9 km/h (2 Bft) W-SW 237 0 min 0,000 mm 0,0 UV-I 0 W/m -2,3 C -0,9 C 17,7 km/h (3 Bft) 100,00 %
14.01.2016 04:35 2,1 C 72 % 1017,9 hPa 0,0 l/m 8,7 km/h (2 Bft) S-SW 192 0 min 0,000 mm 0,0 UV-I 0 W/m -2,4 C -0,1 C 14,5 km/h (3 Bft) 98,43 %
14.01.2016 04:40 2,1 C 72 % 1017,8 hPa 0,0 l/m 9,0 km/h (2 Bft) S-SW 211 0 min 0,000 mm 0,0 UV-I 0 W/m -2,4 C -0,3 C 16,1 km/h (3 Bft) 99,05 %
14.01.2016 04:45 2,1 C 72 % 1017,8 hPa 0,0 l/m 9,2 km/h (2 Bft) S 173 0 min 0,000 mm 0,0 UV-I 0 W/m -2,4 C -0,5 C 17,7 km/h (3 Bft) 98,36 %
14.01.2016 04:50 2,1 C 72 % 1017,7 hPa 0,0 l/m 7,8 km/h (2 Bft) S-SW 212 0 min 0,000 mm 0,0 UV-I 0 W/m -2,4 C 0,7 C 17,7 km/h (3 Bft) 100,00 %
14.01.2016 04:55 2,0 C 73 % 1017,7 hPa 0,0 l/m 7,3 km/h (2 Bft) S-SW 193 0 min 0,000 mm 0,0 UV-I 0 W/m -2,3 C 1,1 C 11,3 km/h (2 Bft) 98,25 %
14.01.2016 05:00 1,9 C 73 % 1017,6 hPa 0,0 l/m 7,1 km/h (2 Bft) S-SO 163 0 min 0,025 mm 0,0 UV-I 0 W/m -2,4 C 1,2 C 11,3 km/h (2 Bft) 98,11 %
14.01.2016 05:05 1,9 C 73 % 1017,6 hPa 0,0 l/m 6,7 km/h (2 Bft) S-SW 200 0 min 0,000 mm 0,0 UV-I 0 W/m -2,4 C 1,6 C 12,9 km/h (3 Bft) 96,97 %
14.01.2016 05:10 1,7 C 74 % 1017,5 hPa 0,0 l/m 5,2 km/h (1 Bft) S-SW 196 0 min 0,000 mm 0,0 UV-I 0 W/m -2,4 C 1,7 C 8,0 km/h (2 Bft) 98,21 %
14.01.2016 05:15 1,7 C 74 % 1017,5 hPa 0,0 l/m 5,3 km/h (1 Bft) S 185 0 min 0,000 mm 0,0 UV-I 0 W/m -2,4 C 1,7 C 9,7 km/h (2 Bft) 96,06 %
14.01.2016 05:20 1,6 C 74 % 1017,5 hPa 0,0 l/m 6,7 km/h (2 Bft) S-SW 205 0 min 0,000 mm 0,0 UV-I 0 W/m -2,5 C 1,3 C 11,3 km/h (2 Bft) 96,40 %
14.01.2016 05:25 1,5 C 75 % 1017,5 hPa 0,0 l/m 6,6 km/h (2 Bft) S-SW 196 0 min 0,000 mm 0,0 UV-I 0 W/m -2,4 C 1,3 C 9,7 km/h (2 Bft) 97,52 %
14.01.2016 05:30 1,4 C 75 % 1017,5 hPa 0,0 l/m 7,9 km/h (2 Bft) SW 215 0 min 0,000 mm 0,0 UV-I 0 W/m -2,5 C -0,1 C 11,3 km/h (2 Bft) 98,29 %
14.01.2016 05:35 1,5 C 74 % 1017,5 hPa 0,0 l/m 6,6 km/h (2 Bft) S-SW 197 0 min 0,000 mm 0,0 UV-I 0 W/m -2,6 C 1,3 C 11,3 km/h (2 Bft) 98,26 %
14.01.2016 05:40 1,6 C 74 % 1017,4 hPa 0,0 l/m 5,1 km/h (1 Bft) SW 231 0 min 0,000 mm 0,0 UV-I 0 W/m -2,5 C 1,6 C 8,0 km/h (2 Bft) 99,11 %
14.01.2016 05:45 1,3 C 75 % 1017,3 hPa 0,0 l/m 5,3 km/h (1 Bft) SW 215 0 min 0,000 mm 0,0 UV-I 0 W/m -2,6 C 1,3 C 8,0 km/h (2 Bft) 98,35 %
14.01.2016 05:50 1,1 C 77 % 1017,2 hPa 0,0 l/m 5,3 km/h (1 Bft) SW 219 0 min 0,000 mm 0,0 UV-I 0 W/m -2,5 C 1,1 C 6,4 km/h (2 Bft) 99,17 %
14.01.2016 05:55 1,0 C 77 % 1017,2 hPa 0,0 l/m 5,7 km/h (1 Bft) S-SW 207 0 min 0,000 mm 0,0 UV-I 0 W/m -2,6 C 1,0 C 8,0 km/h (2 Bft) 99,11 %
14.01.2016 06:00 1,0 C 77 % 1017,2 hPa 0,0 l/m 5,2 km/h (1 Bft) SW 215 0 min 0,026 mm 0,0 UV-I 0 W/m -2,6 C 1,0 C 8,0 km/h (2 Bft) 98,29 %
14.01.2016 06:05 1,1 C 77 % 1017,1 hPa 0,0 l/m 6,5 km/h (2 Bft) SW 219 0 min 0,000 mm 0,0 UV-I 0 W/m -2,5 C 1,0 C 11,3 km/h (2 Bft) 100,00 %
14.01.2016 06:10 1,1 C 76 % 1017,1 hPa 0,0 l/m 5,0 km/h (1 Bft) SW 233 0 min 0,000 mm 0,0 UV-I 0 W/m -2,6 C 1,1 C 9,7 km/h (2 Bft) 99,03 %
14.01.2016 06:15 0,9 C 78 % 1016,9 hPa 0,0 l/m 4,4 km/h (1 Bft) SW 227 0 min 0,000 mm 0,0 UV-I 0 W/m -2,5 C 0,9 C 6,4 km/h (2 Bft) 99,29 %
14.01.2016 06:20 0,7 C 78 % 1016,9 hPa 0,0 l/m 6,0 km/h (2 Bft) SW 227 0 min 0,000 mm 0,0 UV-I 0 W/m -2,7 C 0,7 C 8,0 km/h (2 Bft) 100,00 %
14.01.2016 06:25 0,6 C 78 % 1016,8 hPa 0,0 l/m 6,2 km/h (2 Bft) SW 229 0 min 0,000 mm 0,0 UV-I 0 W/m -2,8 C 0,6 C 9,7 km/h (2 Bft) 99,17 %
14.01.2016 06:30 0,6 C 78 % 1016,8 hPa 0,0 l/m 4,8 km/h (1 Bft) S-SW 205 0 min 0,000 mm 0,0 UV-I 0 W/m -2,8 C 0,6 C 6,4 km/h (2 Bft) 100,00 %
14.01.2016 06:35 0,7 C 78 % 1016,7 hPa 0,0 l/m 4,7 km/h (1 Bft) S-SW 200 0 min 0,000 mm 0,0 UV-I 0 W/m -2,7 C 0,7 C 8,0 km/h (2 Bft) 98,35 %
14.01.2016 06:40 0,6 C 78 % 1016,7 hPa 0,0 l/m 4,5 km/h (1 Bft) S 190 0 min 0,000 mm 0,0 UV-I 0 W/m -2,8 C 0,6 C 6,4 km/h (2 Bft) 99,07 %
14.01.2016 06:45 0,7 C 78 % 1016,7 hPa 0,0 l/m 5,8 km/h (2 Bft) S 179 0 min 0,000 mm 0,0 UV-I 0 W/m -2,7 C 0,7 C 9,7 km/h (2 Bft) 99,21 %
14.01.2016 06:50 0,7 C 77 % 1016,7 hPa 0,0 l/m 4,9 km/h (1 Bft) S-SO 164 0 min 0,000 mm 0,0 UV-I 0 W/m -2,9 C 0,7 C 8,0 km/h (2 Bft) 100,00 %
14.01.2016 06:55 0,7 C 77 % 1016,6 hPa 0,0 l/m 3,7 km/h (1 Bft) S-SW 192 0 min 0,000 mm 0,0 UV-I 0 W/m -2,9 C 0,7 C 6,4 km/h (2 Bft) 100,00 %
14.01.2016 07:00 0,6 C 78 % 1016,7 hPa 0,0 l/m 3,1 km/h (1 Bft) S-SW 192 0 min 0,000 mm 0,0 UV-I 0 W/m -2,8 C 0,6 C 6,4 km/h (2 Bft) 98,26 %
14.01.2016 07:05 0,4 C 78 % 1016,6 hPa 0,0 l/m 2,4 km/h (1 Bft) S 178 0 min 0,000 mm 0,0 UV-I 0 W/m -3,0 C 0,4 C 4,8 km/h (1 Bft) 98,33 %
14.01.2016 07:10 0,5 C 78 % 1016,6 hPa 0,0 l/m 4,1 km/h (1 Bft) S 171 0 min 0,000 mm 0,0 UV-I 0 W/m -2,9 C 0,5 C 6,4 km/h (2 Bft) 98,26 %
14.01.2016 07:15 0,6 C 77 % 1016,5 hPa 0,0 l/m 4,8 km/h (1 Bft) S-SW 195 0 min 0,000 mm 0,0 UV-I 0 W/m -3,0 C 0,6 C 6,4 km/h (2 Bft) 99,15 %
14.01.2016 07:20 0,4 C 78 % 1016,5 hPa 0,0 l/m 5,1 km/h (1 Bft) S 182 0 min 0,000 mm 0,0 UV-I 0 W/m -3,0 C 0,4 C 6,4 km/h (2 Bft) 96,67 %
14.01.2016 07:25 0,4 C 78 % 1016,5 hPa 0,0 l/m 5,3 km/h (1 Bft) S 178 0 min 0,000 mm 0,0 UV-I 0 W/m -3,0 C 0,4 C 8,0 km/h (2 Bft) 96,52 %
14.01.2016 07:30 0,6 C 78 % 1016,4 hPa 0,0 l/m 4,0 km/h (1 Bft) S 172 0 min 0,000 mm 0,0 UV-I 0 W/m -2,8 C 0,6 C 8,0 km/h (2 Bft) 97,37 %
14.01.2016 07:35 0,7 C 77 % 1016,4 hPa 0,0 l/m 5,1 km/h (1 Bft) S-SO 167 0 min 0,000 mm 0,0 UV-I 0 W/m -2,9 C 0,7 C 8,0 km/h (2 Bft) 96,75 %
14.01.2016 07:40 0,8 C 76 % 1016,4 hPa 0,0 l/m 3,9 km/h (1 Bft) S 177 0 min 0,000 mm 0,0 UV-I 0 W/m -2,9 C 0,8 C 6,4 km/h (2 Bft) 96,43 %
14.01.2016 07:45 0,8 C 76 % 1016,4 hPa 0,0 l/m 3,7 km/h (1 Bft) S 169 0 min 0,000 mm 0,0 UV-I 0 W/m -2,9 C 0,8 C 8,0 km/h (2 Bft) 97,39 %
14.01.2016 07:50 1,0 C 75 % 1016,4 hPa 0,0 l/m 4,7 km/h (1 Bft) S-SO 165 0 min 0,000 mm 0,0 UV-I 3 W/m -2,9 C 1,0 C 9,7 km/h (2 Bft) 96,58 %
14.01.2016 07:55 1,1 C 75 % 1016,3 hPa 0,0 l/m 4,7 km/h (1 Bft) S-SO 163 0 min 0,000 mm 0,0 UV-I 5 W/m -2,8 C 1,1 C 9,7 km/h (2 Bft) 99,19 %
14.01.2016 08:00 1,2 C 74 % 1016,3 hPa 0,0 l/m 5,3 km/h (1 Bft) S 172 0 min 0,000 mm 0,0 UV-I 7 W/m -2,9 C 1,2 C 8,0 km/h (2 Bft) 98,33 %
14.01.2016 08:05 1,2 C 73 % 1016,2 hPa 0,0 l/m 3,5 km/h (1 Bft) S-SO 165 0 min 0,000 mm 0,0 UV-I 11 W/m -3,1 C 1,2 C 8,0 km/h (2 Bft) 100,00 %
14.01.2016 08:10 1,3 C 73 % 1016,2 hPa 0,0 l/m 4,0 km/h (1 Bft) S-SO 159 0 min 0,000 mm 0,0 UV-I 13 W/m -3,0 C 1,3 C 9,7 km/h (2 Bft) 98,26 %
14.01.2016 08:15 1,3 C 72 % 1016,2 hPa 0,0 l/m 4,9 km/h (1 Bft) S-SO 156 0 min 0,000 mm 0,0 UV-I 15 W/m -3,2 C 1,3 C 9,7 km/h (2 Bft) 99,15 %
14.01.2016 08:20 1,4 C 72 % 1016,1 hPa 0,0 l/m 4,3 km/h (1 Bft) S-SO 167 0 min 0,000 mm 0,0 UV-I 17 W/m -3,1 C 1,4 C 8,0 km/h (2 Bft) 99,15 %
14.01.2016 08:25 1,3 C 72 % 1015,9 hPa 0,0 l/m 4,9 km/h (1 Bft) S 182 0 min 0,000 mm 0,0 UV-I 19 W/m -3,2 C 1,3 C 8,0 km/h (2 Bft) 100,00 %
14.01.2016 08:30 1,2 C 73 % 1016,0 hPa 0,0 l/m 4,8 km/h (1 Bft) S 188 0 min 0,000 mm 0,0 UV-I 25 W/m -3,1 C 1,2 C 8,0 km/h (2 Bft) 100,00 %
14.01.2016 08:35 0,7 C 75 % 1015,9 hPa 0,0 l/m 5,8 km/h (2 Bft) S 172 0 min 0,000 mm 0,0 UV-I 32 W/m -3,2 C 0,7 C 9,7 km/h (2 Bft) 100,00 %
14.01.2016 08:40 0,9 C 75 % 1016,0 hPa 0,0 l/m 3,8 km/h (1 Bft) S 176 0 min 0,000 mm 0,0 UV-I 40 W/m -3,0 C 0,9 C 8,0 km/h (2 Bft) 98,33 %
14.01.2016 08:45 1,1 C 74 % 1015,9 hPa 0,0 l/m 3,2 km/h (1 Bft) S 169 0 min 0,000 mm 0,0 UV-I 47 W/m -3,0 C 1,1 C 6,4 km/h (2 Bft) 100,00 %
14.01.2016 08:50 1,1 C 74 % 1015,8 hPa 0,0 l/m 2,6 km/h (1 Bft) S 169 0 min 0,000 mm 0,0 UV-I 55 W/m -3,0 C 1,1 C 8,0 km/h (2 Bft) 100,00 %
14.01.2016 08:55 1,0 C 75 % 1015,8 hPa 0,0 l/m 2,7 km/h (1 Bft) S 179 0 min 0,000 mm 0,0 UV-I 64 W/m -2,9 C 1,0 C 6,4 km/h (2 Bft) 99,12 %
14.01.2016 09:00 1,2 C 75 % 1015,7 hPa 0,0 l/m 1,1 km/h (1 Bft) S 176 0 min 0,025 mm 0,0 UV-I 73 W/m -2,7 C 1,2 C 4,8 km/h (1 Bft) 100,00 %
14.01.2016 09:05 0,7 C 79 % 1015,6 hPa 0,0 l/m 4,5 km/h (1 Bft) NO 39 0 min 0,000 mm 0,0 UV-I 83 W/m -2,5 C 0,7 C 6,4 km/h (2 Bft) 98,33 %
14.01.2016 09:10 0,4 C 82 % 1015,5 hPa 0,0 l/m 7,4 km/h (2 Bft) N-NO 30 0 min 0,000 mm 0,0 UV-I 90 W/m -2,3 C -0,6 C 9,7 km/h (2 Bft) 96,23 %
14.01.2016 09:15 0,3 C 82 % 1015,5 hPa 0,0 l/m 5,7 km/h (1 Bft) NO 36 5 min 0,000 mm 0,0 UV-I 103 W/m -2,4 C 0,3 C 8,0 km/h (2 Bft) 97,46 %
14.01.2016 09:20 0,6 C 82 % 1015,4 hPa 0,0 l/m 4,0 km/h (1 Bft) NO 35 5 min 0,000 mm 0,0 UV-I 115 W/m -2,1 C 0,6 C 4,8 km/h (1 Bft) 96,85 %
14.01.2016 09:25 0,9 C 80 % 1015,4 hPa 0,0 l/m 4,1 km/h (1 Bft) NO 35 5 min 0,000 mm 0,0 UV-I 125 W/m -2,2 C 0,9 C 4,8 km/h (1 Bft) 95,65 %
14.01.2016 09:30 1,0 C 81 % 1015,3 hPa 0,0 l/m 5,4 km/h (1 Bft) NO 37 5 min 0,000 mm 0,0 UV-I 135 W/m -1,9 C 1,0 C 8,0 km/h (2 Bft) 98,26 %
14.01.2016 09:35 0,9 C 82 % 1015,3 hPa 0,0 l/m 6,9 km/h (2 Bft) N-NO 26 5 min 0,000 mm 0,0 UV-I 146 W/m -1,8 C 0,4 C 9,7 km/h (2 Bft) 100,00 %
14.01.2016 09:40 1,1 C 82 % 1015,2 hPa 0,0 l/m 5,0 km/h (1 Bft) NO 37 5 min 0,000 mm 0,0 UV-I 158 W/m -1,6 C 1,1 C 8,0 km/h (2 Bft) 100,00 %
14.01.2016 09:45 1,3 C 81 % 1015,3 hPa 0,0 l/m 3,0 km/h (1 Bft) NO 44 5 min 0,000 mm 0,0 UV-I 170 W/m -1,6 C 1,3 C 4,8 km/h (1 Bft) 100,00 %
14.01.2016 09:50 1,7 C 75 % 1015,2 hPa 0,0 l/m 4,5 km/h (1 Bft) NO 53 5 min 0,000 mm 0,0 UV-I 181 W/m -2,2 C 1,7 C 6,4 km/h (2 Bft) 99,17 %
14.01.2016 09:55 1,9 C 76 % 1015,1 hPa 0,0 l/m 3,5 km/h (1 Bft) NO 53 5 min 0,000 mm 0,0 UV-I 191 W/m -1,9 C 1,9 C 4,8 km/h (1 Bft) 99,13 %
14.01.2016 10:00 1,9 C 76 % 1015,1 hPa 0,0 l/m 3,5 km/h (1 Bft) NO 51 5 min 0,051 mm 0,0 UV-I 201 W/m -1,9 C 1,9 C 6,4 km/h (2 Bft) 100,00 %
14.01.2016 10:05 2,2 C 75 % 1015,1 hPa 0,0 l/m 3,1 km/h (1 Bft) NO 51 5 min 0,000 mm 0,0 UV-I 214 W/m -1,8 C 2,2 C 4,8 km/h (1 Bft) 98,35 %
14.01.2016 10:10 2,3 C 75 % 1015,0 hPa 0,0 l/m 4,8 km/h (1 Bft) NO 49 5 min 0,000 mm 0,0 UV-I 225 W/m -1,7 C 2,3 C 8,0 km/h (2 Bft) 100,00 %
14.01.2016 10:15 2,3 C 76 % 1014,9 hPa 0,0 l/m 5,3 km/h (1 Bft) N-NO 25 5 min 0,000 mm 0,0 UV-I 234 W/m -1,5 C 2,3 C 8,0 km/h (2 Bft) 99,12 %
14.01.2016 10:20 2,3 C 77 % 1014,8 hPa 0,0 l/m 6,1 km/h (2 Bft) N-NO 29 5 min 0,000 mm 0,0 UV-I 233 W/m -1,3 C 2,3 C 8,0 km/h (2 Bft) 97,52 %
14.01.2016 10:25 2,2 C 78 % 1014,8 hPa 0,0 l/m 5,6 km/h (1 Bft) NO 36 5 min 0,000 mm 0,0 UV-I 190 W/m -1,2 C 2,2 C 8,0 km/h (2 Bft) 96,33 %
14.01.2016 10:30 2,2 C 78 % 1014,6 hPa 0,0 l/m 5,6 km/h (1 Bft) NO 43 5 min 0,000 mm 0,3 UV-I 199 W/m -1,2 C 2,2 C 8,0 km/h (2 Bft) 97,62 %
14.01.2016 10:35 2,4 C 76 % 1014,5 hPa 0,0 l/m 6,6 km/h (2 Bft) O-NO 59 0 min 0,000 mm 0,2 UV-I 159 W/m -1,4 C 2,2 C 11,3 km/h (2 Bft) 97,32 %
14.01.2016 10:40 2,4 C 75 % 1014,5 hPa 0,0 l/m 8,1 km/h (2 Bft) NO 47 0 min 0,000 mm 0,3 UV-I 136 W/m -1,6 C 0,8 C 12,9 km/h (3 Bft) 98,33 %
14.01.2016 10:45 2,4 C 76 % 1014,4 hPa 0,0 l/m 6,0 km/h (2 Bft) NO 52 5 min 0,000 mm 0,5 UV-I 175 W/m -1,4 C 2,4 C 9,7 km/h (2 Bft) 100,00 %
14.01.2016 10:50 2,4 C 75 % 1014,3 hPa 0,0 l/m 8,1 km/h (2 Bft) NO 55 5 min 0,000 mm 0,5 UV-I 208 W/m -1,6 C 0,8 C 12,9 km/h (3 Bft) 100,00 %
14.01.2016 10:55 2,4 C 74 % 1014,2 hPa 0,0 l/m 10,2 km/h (2 Bft) O-NO 61 5 min 0,000 mm 0,5 UV-I 193 W/m -1,7 C -1,0 C 16,1 km/h (3 Bft) 100,00 %
14.01.2016 11:00 2,4 C 74 % 1014,3 hPa 0,0 l/m 8,1 km/h (2 Bft) O-NO 61 5 min 0,076 mm 0,5 UV-I 217 W/m -1,7 C 0,8 C 12,9 km/h (3 Bft) 99,15 %
14.01.2016 11:05 2,6 C 73 % 1014,1 hPa 0,0 l/m 8,4 km/h (2 Bft) NO 53 5 min 0,000 mm 0,6 UV-I 242 W/m -1,7 C 0,7 C 11,3 km/h (2 Bft) 100,00 %
14.01.2016 11:10 2,7 C 74 % 1013,9 hPa 0,0 l/m 7,3 km/h (2 Bft) O-NO 62 5 min 0,000 mm 0,6 UV-I 261 W/m -1,5 C 1,8 C 11,3 km/h (2 Bft) 99,06 %
14.01.2016 11:15 2,8 C 72 % 1013,8 hPa 0,0 l/m 8,5 km/h (2 Bft) O-NO 64 5 min 0,000 mm 0,6 UV-I 234 W/m -1,7 C 0,9 C 14,5 km/h (3 Bft) 100,00 %
14.01.2016 11:20 2,8 C 72 % 1013,6 hPa 0,0 l/m 8,2 km/h (2 Bft) O-NO 58 5 min 0,000 mm 0,6 UV-I 244 W/m -1,7 C 1,1 C 12,9 km/h (3 Bft) 99,19 %
14.01.2016 11:25 2,9 C 72 % 1013,5 hPa 0,0 l/m 7,4 km/h (2 Bft) NO 55 5 min 0,000 mm 0,6 UV-I 299 W/m -1,6 C 1,9 C 14,5 km/h (3 Bft) 100,00 %
14.01.2016 11:30 3,0 C 70 % 1013,5 hPa 0,0 l/m 10,7 km/h (2 Bft) NO 55 5 min 0,000 mm 0,7 UV-I 340 W/m -1,9 C -0,7 C 16,1 km/h (3 Bft) 98,17 %
14.01.2016 11:35 3,1 C 72 % 1013,4 hPa 0,0 l/m 10,3 km/h (2 Bft) N-NO 27 5 min 0,000 mm 0,7 UV-I 387 W/m -1,4 C -0,2 C 16,1 km/h (3 Bft) 100,00 %
14.01.2016 11:50 3,4 C 70 % 1013,2 hPa 0,0 l/m 9,6 km/h (2 Bft) NO 45 15 min 0,000 mm 0,7 UV-I 294 W/m -1,5 C 0,6 C 14,5 km/h (3 Bft) 97,34 %
14.01.2016 11:55 3,5 C 68 % 1013,1 hPa 0,0 l/m 10,4 km/h (2 Bft) O-NO 64 5 min 0,000 mm 0,7 UV-I 310 W/m -1,8 C 0,1 C 14,5 km/h (3 Bft) 98,31 %
14.01.2016 12:00 3,7 C 67 % 1013,0 hPa 0,0 l/m 9,1 km/h (2 Bft) O-NO 57 5 min 0,127 mm 0,7 UV-I 331 W/m -1,8 C 1,3 C 16,1 km/h (3 Bft) 98,29 %
14.01.2016 12:05 3,8 C 67 % 1012,9 hPa 0,0 l/m 9,4 km/h (2 Bft) NO 50 5 min 0,000 mm 0,7 UV-I 331 W/m -1,8 C 1,2 C 14,5 km/h (3 Bft) 99,08 %
14.01.2016 12:10 3,9 C 69 % 1012,8 hPa 0,0 l/m 8,4 km/h (2 Bft) NO 56 5 min 0,000 mm 0,7 UV-I 354 W/m -1,3 C 2,1 C 11,3 km/h (2 Bft) 100,00 %
14.01.2016 12:15 3,9 C 68 % 1012,7 hPa 0,0 l/m 11,2 km/h (2 Bft) NO 35 5 min 0,000 mm 0,7 UV-I 281 W/m -1,5 C 0,0 C 17,7 km/h (3 Bft) 100,00 %
14.01.2016 12:20 3,8 C 69 % 1012,5 hPa 0,0 l/m 12,2 km/h (2 Bft) NO 46 5 min 0,000 mm 0,7 UV-I 261 W/m -1,4 C -0,8 C 17,7 km/h (3 Bft) 100,00 %
14.01.2016 12:25 3,8 C 70 % 1012,4 hPa 0,0 l/m 9,7 km/h (2 Bft) NO 56 5 min 0,000 mm 0,7 UV-I 255 W/m -1,2 C 1,0 C 14,5 km/h (3 Bft) 99,17 %
14.01.2016 12:30 3,8 C 71 % 1012,2 hPa 0,0 l/m 8,7 km/h (2 Bft) O-NO 58 5 min 0,000 mm 0,7 UV-I 268 W/m -1,0 C 1,8 C 14,5 km/h (3 Bft) 100,00 %
14.01.2016 12:35 3,8 C 69 % 1012,2 hPa 0,0 l/m 10,8 km/h (2 Bft) O-NO 60 5 min 0,000 mm 0,7 UV-I 321 W/m -1,4 C 0,2 C 16,1 km/h (3 Bft) 100,00 %
14.01.2016 12:40 3,9 C 69 % 1012,0 hPa 0,0 l/m 9,4 km/h (2 Bft) O-NO 57 5 min 0,000 mm 0,7 UV-I 261 W/m -1,3 C 1,3 C 14,5 km/h (3 Bft) 99,19 %
14.01.2016 12:45 3,9 C 69 % 1011,9 hPa 0,0 l/m 10,3 km/h (2 Bft) N-NO 32 5 min 0,000 mm 0,7 UV-I 263 W/m -1,3 C 0,6 C 17,7 km/h (3 Bft) 99,13 %
14.01.2016 12:50 3,9 C 66 % 1011,7 hPa 0,0 l/m 11,3 km/h (2 Bft) NO 46 5 min 0,000 mm 0,6 UV-I 267 W/m -1,9 C -0,1 C 19,3 km/h (3 Bft) 98,31 %
14.01.2016 12:55 3,8 C 69 % 1011,5 hPa 0,0 l/m 10,1 km/h (2 Bft) N-NO 27 0 min 0,000 mm 0,6 UV-I 138 W/m -1,4 C 0,7 C 20,9 km/h (4 Bft) 99,17 %
14.01.2016 13:00 3,7 C 69 % 1011,4 hPa 0,0 l/m 11,5 km/h (2 Bft) NO 42 0 min 0,127 mm 0,6 UV-I 159 W/m -1,4 C -0,4 C 19,3 km/h (3 Bft) 100,00 %
14.01.2016 13:05 3,7 C 69 % 1011,3 hPa 0,0 l/m 10,3 km/h (2 Bft) NO 51 5 min 0,000 mm 0,6 UV-I 238 W/m -1,4 C 0,4 C 16,1 km/h (3 Bft) 97,62 %
14.01.2016 13:10 3,8 C 68 % 1011,2 hPa 0,0 l/m 11,8 km/h (2 Bft) O-NO 63 5 min 0,000 mm 0,6 UV-I 294 W/m -1,6 C -0,5 C 19,3 km/h (3 Bft) 95,76 %
14.01.2016 13:15 4,0 C 68 % 1011,1 hPa 0,0 l/m 10,4 km/h (2 Bft) NO 46 5 min 0,000 mm 0,6 UV-I 317 W/m -1,4 C 0,7 C 17,7 km/h (3 Bft) 96,91 %
14.01.2016 13:20 4,1 C 68 % 1010,9 hPa 0,0 l/m 12,6 km/h (3 Bft) O-NO 77 5 min 0,000 mm 0,6 UV-I 286 W/m -1,3 C -0,7 C 20,9 km/h (4 Bft) 96,97 %
14.01.2016 13:25 4,2 C 67 % 1010,7 hPa 0,0 l/m 14,9 km/h (3 Bft) NO 54 5 min 0,000 mm 0,6 UV-I 302 W/m -1,4 C -1,8 C 20,9 km/h (4 Bft) 96,61 %
14.01.2016 13:30 4,3 C 67 % 1010,7 hPa 0,0 l/m 12,7 km/h (3 Bft) N-NO 15 5 min 0,000 mm 0,6 UV-I 309 W/m -1,3 C -0,5 C 20,9 km/h (4 Bft) 99,11 %
14.01.2016 13:35 4,3 C 67 % 1010,7 hPa 0,0 l/m 12,0 km/h (2 Bft) O-NO 60 5 min 0,000 mm 0,6 UV-I 304 W/m -1,3 C -0,0 C 17,7 km/h (3 Bft) 98,29 %
14.01.2016 13:40 4,3 C 64 % 1010,7 hPa 0,0 l/m 13,9 km/h (3 Bft) N-NO 33 5 min 0,000 mm 0,6 UV-I 297 W/m -1,9 C -1,2 C 22,5 km/h (4 Bft) 99,21 %
14.01.2016 13:45 4,3 C 65 % 1010,5 hPa 0,0 l/m 11,6 km/h (2 Bft) NO 51 5 min 0,000 mm 0,5 UV-I 290 W/m -1,7 C 0,2 C 16,1 km/h (3 Bft) 100,00 %
14.01.2016 13:50 4,3 C 64 % 1010,3 hPa 0,0 l/m 16,5 km/h (3 Bft) NO 51 5 min 0,000 mm 0,5 UV-I 283 W/m -1,9 C -2,5 C 25,7 km/h (4 Bft) 100,00 %
14.01.2016 13:55 4,3 C 65 % 1010,2 hPa 0,0 l/m 16,6 km/h (3 Bft) NO 56 5 min 0,000 mm 0,5 UV-I 275 W/m -1,7 C -2,6 C 22,5 km/h (4 Bft) 100,00 %
14.01.2016 14:00 4,3 C 65 % 1010,1 hPa 0,0 l/m 17,4 km/h (3 Bft) NO 47 5 min 0,153 mm 0,5 UV-I 268 W/m -1,7 C -3,0 C 22,5 km/h (4 Bft) 99,17 %
14.01.2016 14:05 4,4 C 65 % 1010,1 hPa 0,0 l/m 16,8 km/h (3 Bft) O-NO 64 5 min 0,000 mm 0,3 UV-I 262 W/m -1,6 C -2,5 C 24,1 km/h (4 Bft) 99,15 %
14.01.2016 14:10 4,4 C 65 % 1009,9 hPa 0,0 l/m 15,1 km/h (3 Bft) NO 49 5 min 0,000 mm 0,0 UV-I 252 W/m -1,6 C -1,7 C 22,5 km/h (4 Bft) 99,15 %
14.01.2016 14:15 4,4 C 65 % 1009,7 hPa 0,0 l/m 16,6 km/h (3 Bft) NO 49 5 min 0,000 mm 0,0 UV-I 242 W/m -1,6 C -2,5 C 25,7 km/h (4 Bft) 99,15 %
14.01.2016 14:20 4,4 C 65 % 1009,7 hPa 0,0 l/m 14,5 km/h (3 Bft) O-NO 71 5 min 0,000 mm 0,0 UV-I 233 W/m -1,6 C -1,4 C 19,3 km/h (3 Bft) 99,08 %
14.01.2016 14:25 4,5 C 65 % 1009,6 hPa 0,0 l/m 14,5 km/h (3 Bft) O-NO 57 5 min 0,000 mm 0,0 UV-I 222 W/m -1,5 C -1,3 C 20,9 km/h (4 Bft) 100,00 %
14.01.2016 14:30 4,5 C 64 % 1009,4 hPa 0,0 l/m 16,0 km/h (3 Bft) NO 51 5 min 0,000 mm 0,0 UV-I 213 W/m -1,7 C -2,0 C 22,5 km/h (4 Bft) 98,00 %
14.01.2016 14:35 4,6 C 66 % 1009,2 hPa 0,0 l/m 11,7 km/h (2 Bft) O-NO 63 5 min 0,000 mm 0,0 UV-I 203 W/m -1,2 C 0,5 C 19,3 km/h (3 Bft) 95,45 %
14.01.2016 14:40 4,6 C 65 % 1009,2 hPa 0,0 l/m 11,9 km/h (2 Bft) O-NO 71 5 min 0,000 mm 0,0 UV-I 193 W/m -1,4 C 0,4 C 17,7 km/h (3 Bft) 96,43 %
14.01.2016 14:45 4,6 C 63 % 1009,3 hPa 0,0 l/m 13,8 km/h (3 Bft) O-NO 72 5 min 0,000 mm 0,0 UV-I 182 W/m -1,8 C -0,8 C 20,9 km/h (4 Bft) 97,62 %
14.01.2016 14:50 4,5 C 63 % 1009,3 hPa 0,0 l/m 12,4 km/h (3 Bft) NO 53 5 min 0,000 mm 0,0 UV-I 171 W/m -1,9 C -0,1 C 20,9 km/h (4 Bft) 97,52 %
14.01.2016 14:55 4,5 C 64 % 1009,2 hPa 0,0 l/m 13,3 km/h (3 Bft) O-NO 67 5 min 0,000 mm 0,0 UV-I 159 W/m -1,7 C -0,6 C 20,9 km/h (4 Bft) 98,15 %
14.01.2016 15:00 4,4 C 64 % 1009,1 hPa 0,0 l/m 13,4 km/h (3 Bft) O 80 5 min 0,127 mm 0,0 UV-I 148 W/m -1,8 C -0,8 C 19,3 km/h (3 Bft) 99,17 %
14.01.2016 15:05 4,4 C 64 % 1009,0 hPa 0,0 l/m 14,0 km/h (3 Bft) O-NO 58 5 min 0,000 mm 0,0 UV-I 137 W/m -1,8 C -1,1 C 19,3 km/h (3 Bft) 99,13 %
14.01.2016 15:10 4,4 C 64 % 1008,9 hPa 0,0 l/m 11,7 km/h (2 Bft) O 80 5 min 0,000 mm 0,0 UV-I 126 W/m -1,8 C 0,3 C 20,9 km/h (4 Bft) 97,44 %
14.01.2016 15:15 4,3 C 65 % 1008,9 hPa 0,0 l/m 11,6 km/h (2 Bft) NO 39 5 min 0,000 mm 0,0 UV-I 115 W/m -1,7 C 0,2 C 19,3 km/h (3 Bft) 100,00 %
14.01.2016 15:20 4,3 C 64 % 1008,8 hPa 0,0 l/m 12,5 km/h (3 Bft) N-NO 32 5 min 0,000 mm 0,0 UV-I 104 W/m -1,9 C -0,4 C 19,3 km/h (3 Bft) 100,00 %
14.01.2016 15:25 4,3 C 64 % 1008,8 hPa 0,0 l/m 11,6 km/h (2 Bft) NO 55 5 min 0,000 mm 0,0 UV-I 92 W/m -1,9 C 0,2 C 16,1 km/h (3 Bft) 99,15 %
14.01.2016 15:30 4,3 C 66 % 1008,7 hPa 0,0 l/m 7,8 km/h (2 Bft) O-NO 65 5 min 0,000 mm 0,0 UV-I 82 W/m -1,5 C 3,0 C 14,5 km/h (3 Bft) 99,17 %
14.01.2016 15:35 4,2 C 65 % 1008,5 hPa 0,0 l/m 12,7 km/h (3 Bft) NO 55 5 min 0,000 mm 0,0 UV-I 73 W/m -1,8 C -0,6 C 19,3 km/h (3 Bft) 99,17 %
14.01.2016 15:40 4,2 C 65 % 1008,5 hPa 0,0 l/m 11,7 km/h (2 Bft) O 82 0 min 0,000 mm 0,0 UV-I 63 W/m -1,8 C 0,0 C 17,7 km/h (3 Bft) 100,00 %
14.01.2016 15:45 4,1 C 66 % 1008,4 hPa 0,0 l/m 13,3 km/h (3 Bft) O-NO 60 0 min 0,000 mm 0,0 UV-I 55 W/m -1,7 C -1,1 C 17,7 km/h (3 Bft) 99,13 %
14.01.2016 15:50 3,8 C 67 % 1008,4 hPa 0,0 l/m 8,5 km/h (2 Bft) NO 55 0 min 0,000 mm 0,0 UV-I 45 W/m -1,8 C 1,9 C 14,5 km/h (3 Bft) 99,12 %
14.01.2016 15:55 3,8 C 67 % 1008,3 hPa 0,0 l/m 8,1 km/h (2 Bft) O-NO 69 0 min 0,000 mm 0,0 UV-I 36 W/m -1,8 C 2,3 C 12,9 km/h (3 Bft) 99,21 %
14.01.2016 16:00 3,7 C 67 % 1008,2 hPa 0,0 l/m 8,1 km/h (2 Bft) NO 52 0 min 0,076 mm 0,0 UV-I 28 W/m -1,8 C 2,2 C 12,9 km/h (3 Bft) 100,00 %
14.01.2016 16:05 3,6 C 69 % 1008,1 hPa 0,0 l/m 8,1 km/h (2 Bft) O-NO 59 0 min 0,000 mm 0,0 UV-I 22 W/m -1,5 C 2,0 C 11,3 km/h (2 Bft) 95,65 %
14.01.2016 16:10 3,4 C 69 % 1008,0 hPa 0,0 l/m 7,1 km/h (2 Bft) NO 53 0 min 0,000 mm 0,0 UV-I 15 W/m -1,7 C 2,7 C 9,7 km/h (2 Bft) 98,21 %
14.01.2016 16:15 3,2 C 70 % 1008,0 hPa 0,0 l/m 6,3 km/h (2 Bft) NO 50 0 min 0,000 mm 0,0 UV-I 12 W/m -1,7 C 3,2 C 8,0 km/h (2 Bft) 94,02 %
14.01.2016 16:20 2,9 C 71 % 1008,0 hPa 0,0 l/m 5,5 km/h (1 Bft) NO 44 0 min 0,000 mm 0,0 UV-I 11 W/m -1,8 C 2,9 C 9,7 km/h (2 Bft) 97,39 %
14.01.2016 16:25 2,6 C 72 % 1008,0 hPa 0,0 l/m 4,0 km/h (1 Bft) NO 52 0 min 0,000 mm 0,0 UV-I 8 W/m -1,9 C 2,6 C 6,4 km/h (2 Bft) 96,77 %
14.01.2016 16:30 2,4 C 73 % 1008,0 hPa 0,0 l/m 3,2 km/h (1 Bft) O-NO 65 0 min 0,000 mm 0,0 UV-I 7 W/m -1,9 C 2,4 C 4,8 km/h (1 Bft) 95,93 %
14.01.2016 16:35 2,3 C 74 % 1007,9 hPa 0,0 l/m 3,4 km/h (1 Bft) O-NO 65 0 min 0,000 mm 0,0 UV-I 5 W/m -1,8 C 2,3 C 4,8 km/h (1 Bft) 98,26 %
14.01.2016 16:40 2,2 C 74 % 1007,9 hPa 0,0 l/m 2,8 km/h (1 Bft) O-NO 65 0 min 0,000 mm 0,0 UV-I 3 W/m -1,9 C 2,2 C 4,8 km/h (1 Bft) 98,00 %
14.01.2016 16:45 2,2 C 73 % 1007,7 hPa 0,0 l/m 2,2 km/h (1 Bft) O-NO 65 0 min 0,000 mm 0,0 UV-I 0 W/m -2,1 C 2,2 C 4,8 km/h (1 Bft) 99,26 %
14.01.2016 16:50 2,3 C 72 % 1007,6 hPa 0,0 l/m 3,2 km/h (1 Bft) O-NO 65 0 min 0,000 mm 0,0 UV-I 0 W/m -2,2 C 2,3 C 4,8 km/h (1 Bft) 98,31 %
14.01.2016 16:55 2,2 C 72 % 1007,6 hPa 0,0 l/m 2,3 km/h (1 Bft) O-NO 65 0 min 0,000 mm 0,0 UV-I 0 W/m -2,3 C 2,2 C 3,2 km/h (1 Bft) 100,00 %
14.01.2016 17:00 2,2 C 72 % 1007,5 hPa 0,0 l/m 2,1 km/h (1 Bft) O-NO 65 0 min 0,025 mm 0,0 UV-I 0 W/m -2,3 C 2,2 C 3,2 km/h (1 Bft) 100,00 %
14.01.2016 17:05 2,1 C 72 % 1007,4 hPa 0,0 l/m 1,7 km/h (1 Bft) O-NO 65 0 min 0,000 mm 0,0 UV-I 0 W/m -2,4 C 2,1 C 3,2 km/h (1 Bft) 99,17 %
14.01.2016 17:10 1,6 C 74 % 1007,2 hPa 0,0 l/m 1,9 km/h (1 Bft) O-NO 65 0 min 0,000 mm 0,0 UV-I 0 W/m -2,5 C 1,6 C 3,2 km/h (1 Bft) 99,19 %
14.01.2016 17:15 1,0 C 76 % 1007,2 hPa 0,0 l/m 2,8 km/h (1 Bft) O-NO 65 0 min 0,000 mm 0,0 UV-I 0 W/m -2,7 C 1,0 C 4,8 km/h (1 Bft) 99,17 %
14.01.2016 17:20 1,1 C 77 % 1007,1 hPa 0,0 l/m 3,2 km/h (1 Bft) O-NO 65 0 min 0,000 mm 0,0 UV-I 0 W/m -2,5 C 1,1 C 4,8 km/h (1 Bft) 99,06 %
14.01.2016 17:25 1,5 C 75 % 1007,1 hPa 0,0 l/m 2,7 km/h (1 Bft) O-NO 65 0 min 0,000 mm 0,0 UV-I 0 W/m -2,4 C 1,5 C 4,8 km/h (1 Bft) 99,17 %
14.01.2016 17:30 1,7 C 74 % 1007,1 hPa 0,0 l/m 3,0 km/h (1 Bft) O-NO 66 0 min 0,000 mm 0,0 UV-I 0 W/m -2,4 C 1,7 C 4,8 km/h (1 Bft) 100,00 %
14.01.2016 17:35 1,4 C 76 % 1007,0 hPa 0,0 l/m 2,3 km/h (1 Bft) O 98 0 min 0,000 mm 0,0 UV-I 0 W/m -2,4 C 1,4 C 6,4 km/h (2 Bft) 99,21 %
14.01.2016 17:40 1,2 C 77 % 1007,1 hPa 0,0 l/m 2,4 km/h (1 Bft) O 98 0 min 0,000 mm 0,0 UV-I 0 W/m -2,4 C 1,2 C 4,8 km/h (1 Bft) 100,00 %
14.01.2016 17:45 0,5 C 80 % 1007,1 hPa 0,0 l/m 1,5 km/h (1 Bft) O 98 0 min 0,000 mm 0,0 UV-I 0 W/m -2,5 C 0,5 C 3,2 km/h (1 Bft) 99,21 %
14.01.2016 17:50 0,0 C 81 % 1007,2 hPa 0,0 l/m 1,0 km/h (0 Bft) O 98 0 min 0,000 mm 0,0 UV-I 0 W/m -2,9 C 0,0 C 3,2 km/h (1 Bft) 100,00 %
14.01.2016 17:55 -0,1 C 82 % 1007,2 hPa 0,0 l/m 0,5 km/h (0 Bft) O 98 0 min 0,000 mm 0,0 UV-I 0 W/m -2,8 C -0,1 C 1,6 km/h (1 Bft) 98,31 %
14.01.2016 18:00 -0,1 C 82 % 1007,1 hPa 0,0 l/m 1,6 km/h (1 Bft) S-SO 150 0 min 0,000 mm 0,0 UV-I 0 W/m -2,8 C -0,1 C 3,2 km/h (1 Bft) 99,17 %
14.01.2016 18:05 0,1 C 82 % 1007,0 hPa 0,0 l/m 1,0 km/h (0 Bft) S-SO 150 0 min 0,000 mm 0,0 UV-I 0 W/m -2,6 C 0,1 C 1,6 km/h (1 Bft) 100,00 %
14.01.2016 18:10 0,2 C 82 % 1006,9 hPa 0,0 l/m 0,7 km/h (0 Bft) S-SO 150 0 min 0,000 mm 0,0 UV-I 0 W/m -2,5 C 0,2 C 1,6 km/h (1 Bft) 100,00 %
14.01.2016 18:15 0,0 C 84 % 1006,8 hPa 0,0 l/m 0,1 km/h (0 Bft) S-SO 150 0 min 0,000 mm 0,0 UV-I 0 W/m -2,4 C 0,0 C 1,6 km/h (1 Bft) 98,29 %
14.01.2016 18:20 -0,1 C 84 % 1006,7 hPa 0,0 l/m 1,1 km/h (1 Bft) S-SO 150 0 min 0,000 mm 0,0 UV-I 0 W/m -2,5 C -0,1 C 3,2 km/h (1 Bft) 97,32 %
14.01.2016 18:25 0,1 C 83 % 1006,8 hPa 0,0 l/m 0,5 km/h (0 Bft) S-SO 150 0 min 0,000 mm 0,0 UV-I 0 W/m -2,4 C 0,1 C 1,6 km/h (1 Bft) 96,52 %
14.01.2016 18:30 -0,2 C 84 % 1006,7 hPa 0,0 l/m 0,7 km/h (0 Bft) S-SO 150 0 min 0,000 mm 0,0 UV-I 0 W/m -2,6 C -0,2 C 3,2 km/h (1 Bft) 97,62 %
14.01.2016 18:35 -0,3 C 85 % 1006,5 hPa 0,0 l/m 0,0 km/h (0 Bft) S-SO 150 0 min 0,000 mm 0,0 UV-I 0 W/m -2,5 C -0,3 C 1,6 km/h (1 Bft) 96,61 %
14.01.2016 18:40 -0,3 C 84 % 1006,5 hPa 0,0 l/m 1,0 km/h (0 Bft) S-SO 150 0 min 0,000 mm 0,0 UV-I 0 W/m -2,7 C -0,3 C 3,2 km/h (1 Bft) 97,37 %
14.01.2016 18:45 0,2 C 83 % 1006,5 hPa 0,0 l/m 1,1 km/h (1 Bft) S-SO 150 0 min 0,000 mm 0,0 UV-I 0 W/m -2,3 C 0,2 C 3,2 km/h (1 Bft) 95,76 %
14.01.2016 18:50 0,2 C 83 % 1006,4 hPa 0,0 l/m 0,3 km/h (0 Bft) S-SO 150 0 min 0,000 mm 0,0 UV-I 0 W/m -2,3 C 0,2 C 1,6 km/h (1 Bft) 96,61 %
14.01.2016 18:55 -0,2 C 84 % 1006,4 hPa 0,0 l/m 0,1 km/h (0 Bft) S-SO 150 0 min 0,000 mm 0,0 UV-I 0 W/m -2,6 C -0,2 C 1,6 km/h (1 Bft) 98,29 %
14.01.2016 19:00 -0,5 C 86 % 1006,5 hPa 0,0 l/m 2,9 km/h (1 Bft) S-SO 163 0 min 0,000 mm 0,0 UV-I 0 W/m -2,5 C -0,5 C 6,4 km/h (2 Bft) 100,00 %
14.01.2016 19:05 -0,6 C 87 % 1006,5 hPa 0,0 l/m 3,5 km/h (1 Bft) S 182 0 min 0,000 mm 0,0 UV-I 0 W/m -2,5 C -0,6 C 6,4 km/h (2 Bft) 97,58 %
14.01.2016 19:10 -0,6 C 87 % 1006,5 hPa 0,0 l/m 3,1 km/h (1 Bft) S 182 0 min 0,000 mm 0,0 UV-I 0 W/m -2,5 C -0,6 C 4,8 km/h (1 Bft) 100,00 %
14.01.2016 19:15 -0,4 C 87 % 1006,6 hPa 0,0 l/m 4,9 km/h (1 Bft) S 177 0 min 0,000 mm 0,0 UV-I 0 W/m -2,3 C -0,4 C 6,4 km/h (2 Bft) 97,46 %
14.01.2016 19:20 -0,2 C 86 % 1006,6 hPa 0,0 l/m 3,5 km/h (1 Bft) S 177 0 min 0,000 mm 0,0 UV-I 0 W/m -2,3 C -0,2 C 6,4 km/h (2 Bft) 99,13 %
14.01.2016 19:25 -0,1 C 85 % 1006,6 hPa 0,0 l/m 0,4 km/h (0 Bft) S 177 0 min 0,000 mm 0,0 UV-I 0 W/m -2,3 C -0,1 C 1,6 km/h (1 Bft) 100,00 %
14.01.2016 19:30 0,2 C 84 % 1006,5 hPa 0,0 l/m 0,5 km/h (0 Bft) S 177 0 min 0,000 mm 0,0 UV-I 0 W/m -2,2 C 0,2 C 1,6 km/h (1 Bft) 100,00 %
14.01.2016 19:35 0,2 C 83 % 1006,6 hPa 0,0 l/m 2,0 km/h (1 Bft) S 177 0 min 0,000 mm 0,0 UV-I 0 W/m -2,3 C 0,2 C 3,2 km/h (1 Bft) 98,25 %
14.01.2016 19:40 0,1 C 84 % 1006,7 hPa 0,0 l/m 2,9 km/h (1 Bft) S 177 0 min 0,000 mm 0,0 UV-I 0 W/m -2,3 C 0,1 C 4,8 km/h (1 Bft) 99,15 %
14.01.2016 19:45 -0,2 C 85 % 1006,7 hPa 0,0 l/m 2,7 km/h (1 Bft) S-SW 197 0 min 0,000 mm 0,0 UV-I 0 W/m -2,4 C -0,2 C 4,8 km/h (1 Bft) 99,11 %
14.01.2016 19:50 -0,2 C 86 % 1006,7 hPa 0,0 l/m 1,7 km/h (1 Bft) S-SW 197 0 min 0,000 mm 0,0 UV-I 0 W/m -2,3 C -0,2 C 3,2 km/h (1 Bft) 100,00 %
14.01.2016 19:55 -0,3 C 87 % 1006,8 hPa 0,0 l/m 3,6 km/h (1 Bft) S-SW 197 0 min 0,000 mm 0,0 UV-I 0 W/m -2,2 C -0,3 C 6,4 km/h (2 Bft) 99,19 %
14.01.2016 20:00 -0,3 C 87 % 1006,9 hPa 0,0 l/m 3,9 km/h (1 Bft) S-SW 199 0 min 0,000 mm 0,0 UV-I 0 W/m -2,2 C -0,3 C 6,4 km/h (2 Bft) 97,87 %
14.01.2016 20:05 -0,1 C 86 % 1006,9 hPa 0,0 l/m 2,6 km/h (1 Bft) S-SW 198 0 min 0,000 mm 0,0 UV-I 0 W/m -2,2 C -0,1 C 3,2 km/h (1 Bft) 99,24 %
14.01.2016 20:10 0,1 C 86 % 1006,8 hPa 0,0 l/m 2,1 km/h (1 Bft) S 184 0 min 0,000 mm 0,0 UV-I 0 W/m -2,0 C 0,1 C 4,8 km/h (1 Bft) 99,15 %
14.01.2016 20:15 0,2 C 85 % 1006,9 hPa 0,0 l/m 2,3 km/h (1 Bft) S 184 0 min 0,000 mm 0,0 UV-I 0 W/m -2,0 C 0,2 C 4,8 km/h (1 Bft) 99,15 %
14.01.2016 20:20 0,3 C 84 % 1006,9 hPa 0,0 l/m 1,9 km/h (1 Bft) S 177 0 min 0,000 mm 0,0 UV-I 0 W/m -2,1 C 0,3 C 3,2 km/h (1 Bft) 99,19 %
14.01.2016 20:25 0,3 C 85 % 1007,0 hPa 0,0 l/m 4,0 km/h (1 Bft) S 182 0 min 0,000 mm 0,0 UV-I 0 W/m -1,9 C 0,3 C 6,4 km/h (2 Bft) 99,15 %
14.01.2016 20:30 0,3 C 85 % 1007,0 hPa 0,0 l/m 4,1 km/h (1 Bft) S 173 0 min 0,000 mm 0,0 UV-I 0 W/m -1,9 C 0,3 C 6,4 km/h (2 Bft) 98,29 %
14.01.2016 20:35 0,3 C 85 % 1007,1 hPa 0,0 l/m 3,2 km/h (1 Bft) S-SW 192 0 min 0,000 mm 0,0 UV-I 0 W/m -1,9 C 0,3 C 6,4 km/h (2 Bft) 98,26 %
14.01.2016 20:40 0,2 C 85 % 1007,1 hPa 0,0 l/m 4,1 km/h (1 Bft) S-SW 207 0 min 0,000 mm 0,0 UV-I 0 W/m -2,0 C 0,2 C 6,4 km/h (2 Bft) 97,50 %
14.01.2016 20:45 0,2 C 86 % 1007,2 hPa 0,0 l/m 5,5 km/h (1 Bft) S-SW 200 0 min 0,000 mm 0,0 UV-I 0 W/m -1,9 C 0,2 C 9,7 km/h (2 Bft) 96,33 %
14.01.2016 20:50 0,2 C 86 % 1007,3 hPa 0,0 l/m 6,9 km/h (2 Bft) S-SW 208 0 min 0,000 mm 0,0 UV-I 0 W/m -1,9 C -0,3 C 9,7 km/h (2 Bft) 98,21 %
14.01.2016 20:55 0,1 C 87 % 1007,2 hPa 0,0 l/m 5,1 km/h (1 Bft) S-SW 209 0 min 0,000 mm 0,0 UV-I 0 W/m -1,8 C 0,1 C 9,7 km/h (2 Bft) 96,12 %
14.01.2016 21:00 0,2 C 86 % 1007,3 hPa 0,0 l/m 4,3 km/h (1 Bft) S-SW 204 0 min 0,000 mm 0,0 UV-I 0 W/m -1,9 C 0,2 C 6,4 km/h (2 Bft) 98,21 %
14.01.2016 21:05 0,3 C 86 % 1007,5 hPa 0,0 l/m 2,6 km/h (1 Bft) S-SW 204 0 min 0,000 mm 0,0 UV-I 0 W/m -1,8 C 0,3 C 4,8 km/h (1 Bft) 95,16 %
14.01.2016 21:10 0,3 C 86 % 1007,4 hPa 0,0 l/m 3,1 km/h (1 Bft) S-SW 204 0 min 0,000 mm 0,0 UV-I 0 W/m -1,8 C 0,3 C 6,4 km/h (2 Bft) 96,40 %
14.01.2016 21:15 0,3 C 86 % 1007,4 hPa 0,0 l/m 5,4 km/h (1 Bft) S-SW 194 0 min 0,000 mm 0,0 UV-I 0 W/m -1,8 C 0,3 C 8,0 km/h (2 Bft) 100,00 %
14.01.2016 21:20 0,3 C 86 % 1007,5 hPa 0,0 l/m 5,6 km/h (1 Bft) S-SW 196 0 min 0,000 mm 0,0 UV-I 0 W/m -1,8 C 0,3 C 8,0 km/h (2 Bft) 99,15 %
14.01.2016 21:25 0,3 C 86 % 1007,5 hPa 0,0 l/m 5,9 km/h (2 Bft) S-SW 205 0 min 0,000 mm 0,0 UV-I 0 W/m -1,8 C 0,3 C 8,0 km/h (2 Bft) 99,08 %
14.01.2016 21:30 0,3 C 86 % 1007,5 hPa 0,0 l/m 6,2 km/h (2 Bft) S-SW 203 0 min 0,000 mm 0,0 UV-I 0 W/m -1,8 C 0,3 C 9,7 km/h (2 Bft) 99,15 %
14.01.2016 21:35 0,4 C 86 % 1007,6 hPa 0,0 l/m 6,3 km/h (2 Bft) S 191 0 min 0,000 mm 0,0 UV-I 0 W/m -1,7 C 0,4 C 11,3 km/h (2 Bft) 100,00 %
14.01.2016 21:40 0,4 C 86 % 1007,7 hPa 0,0 l/m 7,2 km/h (2 Bft) SW 229 0 min 0,000 mm 0,0 UV-I 0 W/m -1,7 C -0,4 C 9,7 km/h (2 Bft) 100,00 %
14.01.2016 21:45 0,4 C 87 % 1007,7 hPa 0,0 l/m 8,1 km/h (2 Bft) SW 236 0 min 0,000 mm 0,0 UV-I 0 W/m -1,5 C -1,3 C 12,9 km/h (3 Bft) 100,00 %
14.01.2016 21:50 0,5 C 86 % 1007,6 hPa 0,0 l/m 7,6 km/h (2 Bft) W-SW 238 0 min 0,000 mm 0,0 UV-I 0 W/m -1,6 C -0,7 C 12,9 km/h (3 Bft) 98,06 %
14.01.2016 21:55 0,6 C 86 % 1007,6 hPa 0,0 l/m 8,4 km/h (2 Bft) W-SW 237 0 min 0,000 mm 0,0 UV-I 0 W/m -1,5 C -1,4 C 12,9 km/h (3 Bft) 100,00 %
14.01.2016 22:00 0,7 C 85 % 1007,7 hPa 0,0 l/m 8,1 km/h (2 Bft) SW 227 0 min 0,000 mm 0,0 UV-I 0 W/m -1,5 C -1,0 C 14,5 km/h (3 Bft) 99,15 %
14.01.2016 22:05 0,8 C 85 % 1007,7 hPa 0,0 l/m 9,3 km/h (2 Bft) SW 215 0 min 0,000 mm 0,0 UV-I 0 W/m -1,4 C -2,0 C 16,1 km/h (3 Bft) 100,00 %
14.01.2016 22:10 0,8 C 85 % 1007,7 hPa 0,0 l/m 9,7 km/h (2 Bft) W-SW 237 0 min 0,000 mm 0,0 UV-I 0 W/m -1,4 C -2,3 C 17,7 km/h (3 Bft) 100,00 %
14.01.2016 22:15 0,8 C 85 % 1007,7 hPa 0,0 l/m 10,2 km/h (2 Bft) SW 227 0 min 0,000 mm 0,0 UV-I 0 W/m -1,4 C -2,7 C 16,1 km/h (3 Bft) 99,10 %
14.01.2016 22:20 0,8 C 85 % 1007,8 hPa 0,0 l/m 9,1 km/h (2 Bft) W-SW 254 0 min 0,000 mm 0,0 UV-I 0 W/m -1,4 C -1,8 C 12,9 km/h (3 Bft) 100,00 %
14.01.2016 22:25 0,9 C 85 % 1007,9 hPa 0,0 l/m 8,2 km/h (2 Bft) W-SW 254 0 min 0,000 mm 0,0 UV-I 0 W/m -1,3 C -0,9 C 12,9 km/h (3 Bft) 100,00 %
14.01.2016 22:30 1,1 C 84 % 1007,8 hPa 0,0 l/m 10,8 km/h (2 Bft) SW 227 0 min 0,000 mm 0,0 UV-I 0 W/m -1,3 C -2,9 C 17,7 km/h (3 Bft) 99,19 %
14.01.2016 22:35 1,2 C 84 % 1007,9 hPa 0,0 l/m 10,1 km/h (2 Bft) SW 234 0 min 0,000 mm 0,0 UV-I 0 W/m -1,2 C -2,2 C 17,7 km/h (3 Bft) 98,35 %
14.01.2016 22:40 1,3 C 83 % 1007,9 hPa 0,0 l/m 10,5 km/h (2 Bft) W-SW 248 0 min 0,000 mm 0,0 UV-I 0 W/m -1,3 C -2,4 C 14,5 km/h (3 Bft) 96,43 %
14.01.2016 22:45 1,3 C 83 % 1007,9 hPa 0,0 l/m 8,4 km/h (2 Bft) W-SW 247 0 min 0,000 mm 0,0 UV-I 0 W/m -1,3 C -0,7 C 12,9 km/h (3 Bft) 97,56 %
14.01.2016 22:50 1,4 C 83 % 1008,0 hPa 0,0 l/m 7,6 km/h (2 Bft) W 264 0 min 0,000 mm 0,0 UV-I 0 W/m -1,2 C 0,2 C 14,5 km/h (3 Bft) 96,33 %
14.01.2016 22:55 1,4 C 82 % 1007,9 hPa 0,0 l/m 7,5 km/h (2 Bft) W 266 0 min 0,000 mm 0,0 UV-I 0 W/m -1,3 C 0,3 C 12,9 km/h (3 Bft) 98,33 %
14.01.2016 23:00 1,5 C 82 % 1008,0 hPa 0,0 l/m 8,5 km/h (2 Bft) W-SW 248 0 min 0,000 mm 0,0 UV-I 0 W/m -1,2 C -0,5 C 14,5 km/h (3 Bft) 97,58 %
14.01.2016 23:05 1,5 C 82 % 1008,1 hPa 0,0 l/m 8,3 km/h (2 Bft) SW 229 0 min 0,000 mm 0,0 UV-I 0 W/m -1,2 C -0,3 C 12,9 km/h (3 Bft) 97,25 %
14.01.2016 23:10 1,6 C 82 % 1008,2 hPa 0,0 l/m 8,2 km/h (2 Bft) W-SW 240 0 min 0,000 mm 0,0 UV-I 0 W/m -1,1 C -0,2 C 14,5 km/h (3 Bft) 97,50 %
14.01.2016 23:15 1,7 C 81 % 1008,2 hPa 0,0 l/m 11,4 km/h (2 Bft) W 267 0 min 0,000 mm 0,0 UV-I 0 W/m -1,2 C -2,6 C 17,7 km/h (3 Bft) 98,31 %
14.01.2016 23:20 1,8 C 80 % 1008,2 hPa 0,0 l/m 9,0 km/h (2 Bft) W-SW 238 0 min 0,000 mm 0,0 UV-I 0 W/m -1,3 C -0,6 C 14,5 km/h (3 Bft) 99,11 %
14.01.2016 23:25 1,8 C 80 % 1008,1 hPa 0,0 l/m 9,3 km/h (2 Bft) SW 229 0 min 0,000 mm 0,0 UV-I 0 W/m -1,3 C -0,9 C 17,7 km/h (3 Bft) 98,37 %
14.01.2016 23:30 1,8 C 82 % 1008,2 hPa 0,0 l/m 8,1 km/h (2 Bft) W-SW 253 0 min 0,000 mm 0,0 UV-I 0 W/m -0,9 C 0,2 C 17,7 km/h (3 Bft) 99,15 %
14.01.2016 23:35 1,8 C 82 % 1008,2 hPa 0,0 l/m 10,2 km/h (2 Bft) SW 215 0 min 0,000 mm 0,0 UV-I 0 W/m -0,9 C -1,6 C 14,5 km/h (3 Bft) 100,00 %
14.01.2016 23:40 1,9 C 83 % 1008,2 hPa 0,0 l/m 13,0 km/h (3 Bft) W-SW 258 0 min 0,000 mm 0,0 UV-I 0 W/m -0,7 C -3,5 C 20,9 km/h (4 Bft) 99,17 %
14.01.2016 23:45 2,0 C 83 % 1008,3 hPa 0,0 l/m 14,7 km/h (3 Bft) W 260 0 min 0,000 mm 0,0 UV-I 0 W/m -0,6 C -4,4 C 22,5 km/h (4 Bft) 98,31 %
14.01.2016 23:50 2,0 C 83 % 1008,3 hPa 0,0 l/m 15,2 km/h (3 Bft) W-SW 253 0 min 0,000 mm 0,0 UV-I 0 W/m -0,6 C -4,7 C 20,9 km/h (4 Bft) 99,10 %
14.01.2016 23:55 2,0 C 84 % 1008,3 hPa 0,0 l/m 13,9 km/h (3 Bft) W-SW 254 0 min 0,000 mm 0,0 UV-I 0 W/m -0,4 C -3,9 C 19,3 km/h (3 Bft) 100,00 %
_ Min-Zeit 19:05 14:45 18:50 - 18:35 - - - - - - 08:35 00:10 17:55 16:15
Minimum _ -0,7 C 63 % 1006,4 hPa - 0,0 km/h (0 Bft) - - - - - - -3,2 C -6,2 C 1,6 km/h (1 Bft) 94,02 %
_ Max-Zeit 14:35 19:05 01:50 00:00 00:10 - - 11:50 14:00 11:30 11:35 23:55 16:15 00:10 00:00
Maximum _ 4,6 C 87 % 1018,1 hPa 0,0 l/m 22,1 km/h
W-SW (4 Bft)
- - 15 min 0,153 mm 0,7 UV-I 387 W/m -0,4 C 3,2 C 37,0 km/h
W-SW (5 Bft)
100,00 %
Durchschnitt _ 2,0 C 75 % 1012,5 hPa #0,0 l/m 8,0 km/h (2 Bft) NO - #6:05 h #0,965 mm 0,6 UV-I 170 W/m -2,0 C -0,2 C 12,9 km/h (3 Bft) 98,65 %